Location: Newark
(49.8969°N, 3.3422°E)
Time: 18:38:18
(UTC+00:00)

A-11 Canister half - Pass Details

Date: 22 January 2020
Orbit: 1517 x 1683 km, 47.2° (Epoch: 17 February)

Event Time Altitude Azimuth Distance (km) Brightness Sun altitude
Exits shadow 06:07:40 16° 276° (W) 3,202 10.0 -13.5°
Maximum altitude 06:14:32 44° 214° (SSW) 2,020 9.5 -12.4°
Drops below altitude 10° 06:23:12 10° 146° (SE) 3,734 11.8 -11.1°
Sets 06:26:28 0° 140° (SE) 4,737 12.7 -10.6°
